sat.trackr.live / text

‹ back to catalog

COSMOS 2616

NORAD 68827 · 2026-090B

PAYLOAD ACTIVE UNKNOWN

§ Identity

Operator
Country
CIS
Launch date
2026-04-23
Launch site
PLMSC
Launch vehicle
Mass (kg)
RCS (m²)

External: N2YO · Heavens-Above · Gunter

§ Orbital elements

Epoch: 2026-05-25T04:21:55.142208Z

Period
91.05 min
Inclination
96.6463°
Eccentricity
0.0017897
Mean motion
15.81518865 rev/d
Perigee alt
314.1 km
Apogee alt
338.1 km
Semi-major
6,704.3 km
B*
1.6777e-4
RAAN
63.6900°
Arg perigee
122.4157°
Mean anomaly
237.8847°
Rev number
503

§ Raw data

COSMOS 26161 68827U 26090B   26145.18188822  .00033566  00000+0  16777-3 0  99972 68827  96.6463  63.6900 0017897 122.4157 237.8847 15.81518865  5030

JSON: /api/v1/satellites/68827 · /tle

For live sub-satellite position, see the globe view (requires WebGL).

§ Visibility from observer

Set your observer location to see the next 7 days of passes ≥ 10°. The values pass through the URL so the page stays shareable.

No JS? Fill the form by hand. The geolocation button needs JavaScript.